This demonstration page uses our WeatherBlox Daily Observations layout. Learn more.

Left ArrowRight Arrow

38.88101, -77.10428

Hourly Observations for July 27, 2020

Temp ( °F °C ) Dew Point ( °F °C ) Humidity (%) Winds ( mph kmh ) Pressure ( in mb ) Visibility ( mi km ) Precip ( " mm )
12:52 am 00:52 Mostly Cloudy 84 28.9 70 21.1 63 63 S 3 6 29.96 1015 10 16.0934 0 0
1:52 am 01:52 Mostly Cloudy 83 28.3 69 20.6 63 63 S 5 7 29.95 1014 10 16.0934 0 0
2:52 am 02:52 Mostly Cloudy 81 27.2 69 20.6 67 67 S 3 6 29.94 1014 10 16.0934 0 0
3:52 am 03:52 Mostly Cloudy 82 27.8 69 20.6 65 65 Calm 29.94 1014 10 16.0934 0 0
4:52 am 04:52 Partly Cloudy 79 26.1 70 21.1 74 74 NNW 5 7 29.94 1014 10 16.0934 0 0
5:52 am 05:52 Partly Cloudy 81 27.2 67 19.4 62 62 NW 6 9 29.95 1014 10 16.0934 0 0
6:52 am 06:52 Partly Cloudy 80 26.7 68 20 67 67 Calm 29.97 1015 10 16.0934 0 0
7:52 am 07:52 Partly Cloudy 84 28.9 70 21.1 63 63 NNE 3 6 29.97 1015 10 16.0934 0 0
8:52 am 08:52 Partly Cloudy 86 30 70 21.1 59 59 ESE 3 6 29.97 1015 10 16.0934 0 0
9:52 am 09:52 Mostly Sunny 89 31.7 69 20.6 52 52 E 3 6 29.96 1015 10 16.0934 0 0
10:52 am 10:52 Mostly Sunny 91 32.8 68 20 47 47 VRB 5 7 29.95 1014 10 16.0934 0 0
11:52 am 11:52 Partly Cloudy 92 33.3 69 20.6 47 47 W 8 13 29.94 1014 10 16.0934 0 0
12:52 pm 12:52 Partly Cloudy 94 34.4 68 20 43 43 WSW 8 13 29.93 1014 10 16.0934 0 0
1:52 pm 13:52 Partly Cloudy 94 34.4 68 20 43 43 WSW 9 15 29.91 1013 10 16.0934 0 0
2:52 pm 14:52 Mostly Cloudy 95 35 70 21.1 44 44 WSW 9 15 29.89 1012 10 16.0934 0 0
3:52 pm 15:52 Mostly Cloudy 95 35 69 20.6 43 43 undefined N/A 29.86 1011 10 16.0934 0 0
4:52 pm 16:52 Mostly Cloudy 95 35 68 20 41 41 SW 10 17 29.84 1011 10 16.0934 0 0
5:52 pm 17:52 Mostly Cloudy 93 33.9 66 18.9 41 41 SSW 14 22 29.83 1010 10 16.0934 0 0
6:52 pm 18:52 Mostly Cloudy 93 33.9 68 20 44 44 SW 13 20 29.83 1010 10 16.0934 0 0
7:52 pm 19:52 Partly Cloudy 92 33.3 69 20.6 47 47 SSW 8 13 29.83 1010 10 16.0934 0 0
8:52 pm 20:52 Partly Cloudy 90 32.2 70 21.1 52 52 SW 9 15 29.84 1011 10 16.0934 0 0
9:52 pm 21:52 Partly Cloudy 87 30.6 71 21.7 59 59 SSW 8 13 29.83 1010 10 16.0934 0 0
10:52 pm 22:52 Partly Cloudy 85 29.4 74 23.3 70 70 SSW 6 9 29.84 1010 10 16.0934 0 0
11:52 pm 23:52 Partly Cloudy 84 28.9 72 22.2 67 67 S 7 11 29.84 1010 10 16.0934 0 0

Powered by AerisWeather